Starlink 32694

operational
NORAD ID: 62494 Int'l Des: 2025-003 Owner: SPXS Country: US Constellation: starlink
LEOCIRCULAR

关于 Starlink 32694

正在加载描述...

实时位置

正在加载3D地球...

即将过境

高度历史

Altitude vs Time

uPlot chart will show altitude changes over time

两行轨道根数

1 62494U 25003H 26033.63538798 .00030524 00000-0 11132-2 0 9992
2 62494 42.9996 126.6666 0001136 269.9506 90.1215 15.27607356 61318
Epoch: Feb 2, 2026 • Age: 20 hours

当前状态

高度 484.7 km
速度 7.62 km/s
星下点 -12.20°S, 161.32°E
发射日期 Jan 6, 2025
运行时间 1 years
类型 internet

技术详情

分类 Payload
质量 730.00 kg
干质量 700.00 kg
总质量 730.00 kg
长度 0.30 m
直径 4.10 m
跨度 29.00 m
形状 Box + pan
制造商 SPXS
平台类型 Starlink V2M
阶段状态 In Orbit
所有者/国家 SPXS/US

大型星座

Loading constellations...